User: anonymous   Login
Location: Unspecified
(0.0000°N, 0.0000°E)
Time: 19:54:26
(UTC+00:00)
Language:

Zi Yuan 2 - Orbit

View from above orbital plane
View from above orbital plane
View from above satellite
View from above satellite

Ground track
Ground track

The orbit data is extracted from the following two-line orbital elements,

1 26481U 00050A   16070.83870556  .05360644  00000-0  11920-3 0  9996
2 26481  97.1411  83.0170 0005769 180.6035 179.6337 16.46415765870203
Epoch (UTC): 10 March 2016 20:07:44
Eccentricity: 0.0005769
inclination: 97.1411°
perigee height: 145 km
apogee height: 152 km
right ascension of ascending node: 83.0170°
argument of perigee: 180.6035°
revolutions per day: 16.46415765
mean anomaly at epoch: 179.6337°
orbit number at epoch: 87020

The dashed part of the orbit path shows where the satellite is in the earth's shadow,  

DLR